Regional Weather Roundup
Issued by NWS

Home | Current Version | Previous Version | Graphics & Text | Print | Product List | Glossary On
Versions: 1 2 3 4 5 6 7 8 9 10 11 12 13 14 15 16 17 18 19 20 21 22 23 24 25 26 27 28 29 30 31 32 33 34 35 36 37 38 39 40 41 42 43 44 45 46 47 48 49 50
000
ASUS43 KDMX 260301
RWRIA

WEATHER ROUNDUP FOR IOWA
NATIONAL WEATHER SERVICE DES MOINES IA
1000 PM CDT SAT MAR 25 2017

NOTE: "FAIR" INDICATES FEW OR NO CLOUDS BELOW 12,000 FEET WITH NO
SIGNIFICANT WEATHER AND/OR OBSTRUCTIONS TO VISIBILITY.

* - THESE STATIONS ARE NOT NWS STATIONS...THUS NOT UNDER NWS
QUALITY CONTROL.  THEY ALSO DO NOT REPORT WEATHER SUCH
AS PRECIPITATION OR FOG.

IAZ001>003-012>014-020>022-031>034-043>046-260400-
   NORTHWEST IOWA

CITY           SKY/WX    TMP DP  RH WIND       PRES   REMARKS
CARROLL *      CLOUDY    39  39 100 NE10      29.94S FOG     WCI  32
CHEROKEE *     CLOUDY    38  38 100 NE6       29.98S WCI  33
LE MARS *      CLOUDY    39  37  93 NE9G16    29.99F WCI  33
ORANGE CITY *  CLOUDY    37  37 100 E9        29.97F FOG     WCI  31
SHELDON *      CLOUDY    37  37 100 E13       29.97F FOG     WCI  29
SIOUX CITY     CLOUDY    39  39 100 NE7       29.98F WCI  34
SPENCER        CLOUDY    37  37 100 NE10      29.98S WCI  30
STORM LAKE *   CLOUDY    37  37 100 NE10      29.96S FOG     WCI  30
$$

IAZ055>058-069>071-079>083-090>094-260400-
   SOUTHWEST IOWA

CITY           SKY/WX    TMP DP  RH WIND       PRES   REMARKS
ATLANTIC *     CLOUDY    41  41 100 NE9       29.93S
AUDUBON *      CLOUDY    39  37  93 NE7       29.94S FOG     WCI  34
CLARINDA *     CLOUDY    43  43 100 N9        29.94F FOG
COUNCIL BLFS * CLOUDY    39  39 100 NE9       29.94S WCI  33
CRESTON *      CLOUDY    41  41 100 N6        29.92R FOG
HARLAN  *      CLOUDY    39  39 100 N7        29.97S FOG     WCI  34
LAMONI         CLOUDY    42  41  96 N10       29.88S FOG
RED OAK *      CLOUDY    41  41 100 N7        29.94R FOG
SHENANDOAH *   CLOUDY    41  41 100 N5        29.94S
$$

IAZ047>049-059>061-072>074-084-260400-
   CENTRAL IOWA

CITY           SKY/WX    TMP DP  RH WIND       PRES   REMARKS
AMES           CLOUDY    40  40 100 NE7       29.93S FOG
ANKENY *       CLOUDY    41  41 100 NE9       29.92F FOG
BOONE *        CLOUDY    39  39 100 NE12      29.93S FOG     WCI  32
CHARITON *     FOG       43  43 100 N8        29.88S VSB 1/4
DES MOINES     CLOUDY    43  42  97 NE10      29.91S FOG
GRINNELL*      FOG       42  41  97 N9        29.91S VSB 1
KNOXVILLE *    FOG       43  43 100 N9        29.87F VSB 1/4
MARSHALLTOWN   CLOUDY    40  40 100 NE9       29.92S FOG     WCI  34
NEWTON *       FOG       41  41 100 NE12      29.89S VSB 1
PELLA *        CLOUDY    43  43  99 N7        29.90F FOG
PERRY *        CLOUDY    41  40  96 NE8       29.93S FOG
$$

IAZ004>006-015-016-023>025-035-036-260400-
   NORTH CENTRAL IOWA

CITY           SKY/WX    TMP DP  RH WIND       PRES   REMARKS
ALGONA *       CLOUDY    39  39 100 NE10G16   29.96F WCI  32
CLARION *      CLOUDY    39  39 100 E13       29.95S FOG     WCI  32
ESTHERVILLE    CLOUDY    36  36 100 NE13      29.97F WCI  27
FORT DODGE *   CLOUDY    37  36  93 NE6       29.96S WCI  33
MASON CITY     CLOUDY    37  36  96 NE10      29.97F FOG     WCI  30
FOREST CITY *  CLOUDY    36  36 100 NE9       29.97S WCI  29
WEBSTER CITY * CLOUDY    39  37  93 NE9       29.93S WCI  33
IOWA FALLS *   CLOUDY    39  38  97 NE9       29.95R FOG     WCI  33
$$

IAZ007>011-017>019-026>030-037>042-050>054-066-260400-
   NORTHEAST IOWA

CITY           SKY/WX    TMP DP  RH WIND       PRES   REMARKS
CEDAR RAPIDS   FOG       43  43 100 E16       29.89S VSB 1/2
CHARLES CITY * CLOUDY    37  37 100 E14       29.96S FOG     WCI  29
CLINTON *      LGT RAIN  43  42  97 NE20      29.91F
DECORAH *      CLOUDY    37  37 100 E12       29.97S FOG     WCI  30
DUBUQUE        FOG       40  40 100 NE17      29.94F VSB 1/2 WCI  31
MONTICELLO *   FOG       41  41 100 NE8G15    29.93S VSB 1
OELWEIN *      FOG       39  39 100 E16G22    29.94S VSB 3/4 WCI  30
WATERLOO       CLOUDY    40  39  97 NE13      29.94S FOG     WCI  32
$$

IAZ064-065-067-068-078-260400-
   EAST CENTRAL IOWA

CITY           SKY/WX    TMP DP  RH WIND       PRES   REMARKS
DAVENPORT      CLOUDY    45  44  97 E16       29.90F FOG
IOWA CITY      CLOUDY    46  44  93 NE10      29.90S FOG
MUSCATINE *    CLOUDY    48  46  93 NE12      29.88S
QUAD CITIES    CLOUDY    48  46  93 NE10      29.89S
$$

IAZ062-063-075>077-085>089-095>099-260400-
   SOUTHEAST IOWA

CITY           SKY/WX    TMP DP  RH WIND       PRES   REMARKS
BURLINGTON     CLOUDY    58  58 100 E9        29.83S
FAIRFIELD *    FOG       48  48 100 NE13      29.84F VSB 1/2
FORT MADISON * CLOUDY    57  57 100 E7        29.83S FOG
KEOKUK *       CLOUDY    57  57 100 E7        29.81S
OSKALOOSA *    FOG       45  44  99 N8        29.87S VSB 1/2
OTTUMWA        FOG       47  47 100 N9        29.86F VSB 1/4
WASHINGTON *   CLOUDY    46  46 100 NE16      29.87F FOG
$$

ABBREVIATIONS USED IN REMARKS
   TC - TEMPERATURES IN CELSIUS
  WCI - WIND CHILL INDEX
   HX - HEAT INDEX
  VSB - VISIBILITY
$$




USA.gov is the U.S. government's official web portal to all federal, state and local government web resources and services.